Location: The Saddle
(36.8333°N, 80.3417°W)
Time: 13:33:21
(UTC-04:00)

Courier 1B - Pass Details

Date: 25 September 2024
Orbit: 962 x 1208 km, 28.3° (Epoch: 06 October)

Event Time Altitude Azimuth Distance (km) Brightness Sun altitude
Rises 11:09:11 0° 234° (SW) 3,627 10.4 42.4°
Reaches altitude 10° 11:12:07 10° 223° (SW) 2,687 10.0 42.8°
Maximum altitude 11:17:37 30° 164° (SSE) 1,669 10.2 43.5°
Drops below altitude 10° 11:23:18 10° 106° (ESE) 2,770 10.7 44.3°
Sets 11:26:22 0° 96° (E) 3,758 11.0 44.6°
